Home   Weather   Maldonado   Past weeks

Flag for Uruguay Past Weather in Maldonado, Uruguay — Yesterday and Last 2 Weeks

Now
46 °F

Clear.


Feels Like: 43 °F
Forecast: 40 / 65 °F
Wind: 7 mph from East

Location: Capitan Corbeta

Current Time: Sep 25, 2016 at 10:58:59 PM

Latest Report: Sep 25, 2016 at 9:00 PM


Visibility: 10 mi

Pressure: 30.15 "Hg

Humidity: 87%

Dew Point: 43 °F

Location of MaldonadoLocation

Past Weather in Maldonado — Graph

°F

Maldonado Temperature Yesterday

Maximum temperature yesterday: 61 °F (at 9:00 AM)
Minimum temperature yesterday: 46 °F (at 7:00 AM)
Average temperature yesterday: 50 °F

High & Low Weather Summary for the Past Weeks

 TemperatureHumidityPressure
High77 °F (Sep 22, 2:00 PM)100% (Sep 12, 7:00 PM)30.30 "Hg (Sep 12, 7:00 PM)
Low41 °F (Sep 15, 11:00 PM)46% (Sep 16, 2:00 PM)29.36 "Hg (Sep 13, 8:00 PM)
Average55 °F83%30.03 "Hg
* Reported Sep 10 9:00 PM — Sep 25 9:00 PM, Maldonado, Weather by CustomWeather, © 2016

Note: Actual official high and low records may vary slightly from our data, if they occured in-between our weather recording intervals... More about our weather records

Advertising

Maldonado Weather History for the Previous 24 Hours

Scroll right to see more
 ConditionsComfort  
Time TempWeatherWind HumidityBarometerVisibility
9:00 PM
Sun, Sep 25
46 °FClear.7 mph87%30.15 "Hg10 mi
8:00 PM46 °FClear.3 mph82%30.15 "Hg10 mi
7:00 PM48 °FClear.5 mph82%30.18 "Hg10 mi
6:00 PM50 °FSunny.5 mph82%30.18 "Hg10 mi
5:00 PM52 °FSunny.9 mph77%30.18 "Hg10 mi
4:00 PM54 °FSunny.12 mph72%30.21 "Hg10 mi
3:00 PM54 °FSunny.8 mph72%30.21 "Hg10 mi
2:00 PM54 °FSunny.7 mph72%30.21 "Hg10 mi
1:00 PM54 °FPassing clouds.9 mph72%30.24 "HgN/A
12:00 PM52 °FPassing clouds.9 mph72%30.24 "HgN/A
11:00 AM52 °FScattered clouds.6 mph77%30.24 "HgN/A
10:00 AM50 °FPartly sunny.10 mph76%30.27 "HgN/A
9:00 AM48 °FPartly sunny.10 mph82%30.27 "HgN/A
8:00 AM48 °FPartly sunny.12 mph82%30.27 "HgN/A
7:00 AM48 °FPartly sunny.12 mph82%30.24 "HgN/A
6:00 AM46 °FPassing clouds.14 mph87%30.24 "HgN/A
5:00 AM48 °FPassing clouds.9 mph82%30.24 "HgN/A
4:00 AM48 °FPassing clouds.14 mph82%30.24 "HgN/A
3:00 AM48 °FPassing clouds.9 mph82%30.24 "HgN/A
2:00 AM48 °FPassing clouds.14 mph87%30.24 "HgN/A
1:00 AM48 °FPassing clouds.9 mph87%30.27 "HgN/A
12:00 AM48 °FPassing clouds.12 mph87%30.27 "HgN/A
11:00 PM
Sat, Sep 24
46 °FPassing clouds.7 mph87%30.27 "HgN/A
10:00 PM46 °FPassing clouds.17 mph87%30.27 "HgN/A
Weather by CustomWeather, © 2016

See weather overviewHow to use our weather pages